Home   Weather   Kløfta   Past weeks

Flag for Norway Past Weather in Kløfta, Norway — Yesterday and Last 2 Weeks

Now
54 °F

Passing clouds.


Feels Like: 50 °F
Forecast: 51 / 63 °F
Wind: 12 mph from Southwest

Location: Oslo Gardermoen Airport

Current Time: Aug 19, 2017 at 10:39:31 pm

Latest Report: Aug 19, 2017 at 9:50 pm


Visibility: N/A

Pressure: 29.62 "Hg

Humidity: 82%

Dew Point: 48 °F

Location of KløftaLocation

Past Weather in Kløfta — Graph

°F

Kløfta Temperature Yesterday

Maximum temperature yesterday: 66 °F (at 4:50 pm)
Minimum temperature yesterday: 55 °F (at 12:20 am)
Average temperature yesterday: 59 °F

High & Low Weather Summary for the Past Weeks

 TemperatureHumidityPressure
High72 °F (Aug 11, 3:20 pm)100% (Aug 5, 6:20 am)30.15 "Hg (Aug 5, 6:20 am)
Low43 °F (Aug 14, 5:50 am)26% (Aug 13, 5:50 pm)29.39 "Hg (Aug 4, 9:20 pm)
Average58 °F74%29.84 "Hg
* Reported Aug 4 9:20 pm — Aug 19 9:20 pm, Kløfta. Weather by CustomWeather, © 2017

Note: Actual official high and low records may vary slightly from our data, if they occured in-between our weather recording intervals... More about our weather records

Advertising

Kløfta Weather History for the Previous 24 Hours

Scroll right to see more
 ConditionsComfort  
Time TempWeatherWind HumidityBarometerVisibility
9:20 pm
Sat, Aug 19
55 °FPartly cloudy.14 mph77%29.59 "HgN/A
8:50 pm55 °FBroken clouds.17 mph77%29.59 "HgN/A
8:20 pm57 °FBroken clouds.20 mph67%29.59 "HgN/A
7:50 pm57 °FPartly sunny.17 mph67%29.59 "HgN/A
7:20 pm59 °FBroken clouds.15 mph63%29.59 "HgN/A
6:20 pm61 °FBroken clouds.21 mph55%29.59 "HgN/A
5:50 pm61 °FPartly sunny.22 mph55%29.56 "HgN/A
5:20 pm63 °FPartly sunny.21 mph52%29.59 "HgN/A
4:50 pm63 °FBroken clouds.20 mph52%29.56 "HgN/A
4:20 pm61 °FPartly sunny.21 mph59%29.56 "HgN/A
3:20 pm63 °FPartly sunny.17 mph64%29.56 "HgN/A
2:50 pm61 °FPartly sunny.13 mph63%29.56 "HgN/A
2:20 pm61 °FPartly sunny.9 mph72%29.56 "HgN/A
1:50 pm59 °FPartly sunny.9 mph82%29.56 "HgN/A
1:20 pm57 °FBroken clouds.9 mph94%29.56 "HgN/A
12:50 pm57 °FScattered showers. Broken clouds.10 mph88%29.53 "HgN/A
12:20 pm57 °FBroken clouds.10 mph88%29.53 "HgN/A
11:50 am57 °FScattered showers. Broken clouds.12 mph88%29.53 "HgN/A
11:20 am57 °FScattered showers. Partly sunny.7 mph94%29.53 "HgN/A
10:50 am57 °FScattered showers. Broken clouds.9 mph94%29.53 "HgN/A
10:20 am57 °FSprinkles. Broken clouds.6 mph88%29.53 "HgN/A
9:50 am55 °FSprinkles. More clouds than sun.2 mph94%29.56 "HgN/A
9:20 am55 °FLight rain. More clouds than sun.2 mph94%29.56 "HgN/A
8:50 am55 °FLight rain. More clouds than sun.No wind94%29.56 "HgN/A
8:20 am55 °FDrizzle. More clouds than sun.1 mph94%29.56 "HgN/A
7:50 am55 °FLight rain. More clouds than sun.1 mph88%29.56 "HgN/A
7:20 am54 °FRain. More clouds than sun.2 mph94%29.56 "HgN/A
6:50 am54 °FRain. Partly sunny.3 mph94%29.56 "Hg6 mi
6:20 am55 °FRain. Broken clouds.2 mph88%29.56 "Hg4 mi
5:50 am57 °FRain. Broken clouds.No wind94%29.56 "Hg4 mi
5:20 am57 °FRain. Passing clouds.2 mph94%29.59 "Hg5 mi
4:50 am57 °FScattered showers. Low clouds.2 mph94%29.59 "HgN/A
4:20 am57 °FSprinkles. Passing clouds.3 mph94%29.62 "HgN/A
3:50 am57 °FPassing clouds.6 mph94%29.62 "HgN/A
3:20 am57 °FSprinkles. Passing clouds.5 mph94%29.62 "HgN/A
2:50 am57 °FLight rain. Low clouds.3 mph94%29.65 "HgN/A
2:20 am59 °FLight rain. Passing clouds.3 mph88%29.65 "HgN/A
1:50 am59 °FLight rain. Passing clouds.2 mph88%29.65 "HgN/A
1:20 am59 °FPartly cloudy.No wind88%29.68 "HgN/A
12:50 am59 °FPassing clouds.3 mph88%29.68 "HgN/A
12:20 am59 °FPartly cloudy.6 mph88%29.68 "HgN/A
11:50 pm
Fri, Aug 18
59 °FPartly cloudy.2 mph82%29.68 "HgN/A
11:20 pm59 °FPartly cloudy.5 mph82%29.68 "HgN/A
10:50 pm59 °FPassing clouds.6 mph82%29.71 "HgN/A
10:20 pm59 °FPartly cloudy.9 mph82%29.71 "HgN/A
Weather by CustomWeather, © 2017

See weather overviewHow to use our weather pages